TimeCDT,TemperatureF,Dew PointF,Humidity,Sea Level PressureIn,VisibilityMPH,Wind Direction,Wind SpeedMPH,Gust SpeedMPH,PrecipitationIn,Events,Conditions,WindDirDegrees,DateUTC
12:14 AM,73.4,71.6,94,29.85,10.0,East,8.1,-,N/A,Thunderstorm,Thunderstorm,100,2013-06-23 05:14:00
12:34 AM,73.4,71.6,94,29.85,10.0,ESE,12.7,-,N/A,,Clear,120,2013-06-23 05:34:00
12:54 AM,73.4,71.6,94,29.84,10.0,SSE,9.2,-,N/A,,Scattered Clouds,150,2013-06-23 05:54:00
1:14 AM,73.4,69.8,88,29.81,10.0,SE,13.8,17.3,N/A,,Clear,130,2013-06-23 06:14:00
1:34 AM,73.4,69.8,88,29.83,10.0,SE,13.8,18.4,N/A,,Scattered Clouds,130,2013-06-23 06:34:00
1:54 AM,73.4,69.8,88,29.83,10.0,ESE,15.0,21.9,N/A,,Scattered Clouds,120,2013-06-23 06:54:00
2:14 AM,73.4,69.8,88,29.83,10.0,SE,13.8,-,N/A,,Scattered Clouds,130,2013-06-23 07:14:00
2:34 AM,73.4,69.8,88,29.84,10.0,ESE,10.4,-,N/A,,Clear,120,2013-06-23 07:34:00
2:54 AM,73.4,69.8,88,29.83,10.0,SE,16.1,21.9,N/A,,Clear,130,2013-06-23 07:54:00
3:14 AM,73.4,68.0,83,29.82,10.0,SE,19.6,26.5,N/A,,Clear,140,2013-06-23 08:14:00
3:34 AM,73.4,68.0,83,29.81,10.0,SE,20.7,29.9,N/A,,Clear,140,2013-06-23 08:34:00
3:54 AM,71.6,66.2,83,29.80,10.0,SE,19.6,27.6,N/A,,Clear,140,2013-06-23 08:54:00
4:14 AM,71.6,68.0,88,29.80,10.0,SE,24.2,31.1,N/A,,Clear,130,2013-06-23 09:14:00
4:34 AM,71.6,66.2,83,29.78,10.0,SE,21.9,31.1,N/A,,Clear,130,2013-06-23 09:34:00
4:54 AM,71.6,66.2,83,29.76,10.0,SE,24.2,31.1,N/A,,Clear,130,2013-06-23 09:54:00
5:14 AM,71.6,66.2,83,29.77,10.0,SE,23.0,36.8,N/A,,Clear,140,2013-06-23 10:14:00
5:34 AM,71.6,66.2,83,29.79,10.0,SE,23.0,34.5,N/A,,Clear,140,2013-06-23 10:34:00
5:54 AM,71.6,66.2,83,29.81,10.0,SSE,23.0,31.1,N/A,Thunderstorm,Scattered Clouds,150,2013-06-23 10:54:00
6:14 AM,71.6,68.0,88,29.81,7.0,SSE,19.6,23.0,N/A,Rain-Thunderstorm,Light Thunderstorms and Rain,160,2013-06-23 11:14:00
6:34 AM,71.6,69.8,94,29.83,5.0,South,21.9,33.4,0.08,Rain-Thunderstorm,Heavy Thunderstorms and Rain,180,2013-06-23 11:34:00
6:54 AM,71.6,68.0,88,29.82,10.0,South,13.8,24.2,0.22,Rain-Thunderstorm,Heavy Thunderstorms and Rain,180,2013-06-23 11:54:00
7:14 AM,69.8,66.2,88,29.82,10.0,SSE,12.7,-,0.03,Rain-Thunderstorm,Light Thunderstorms and Rain,160,2013-06-23 12:14:00
7:34 AM,71.6,69.8,94,29.80,10.0,SSE,11.5,-,0.04,Rain,Light Rain,160,2013-06-23 12:34:00
7:54 AM,71.6,66.2,83,29.79,10.0,SSE,9.2,-,0.04,,Light Drizzle,160,2013-06-23 12:54:00
8:14 AM,71.6,69.8,94,29.80,10.0,South,16.1,20.7,0.01,Rain,Light Rain,170,2013-06-23 13:14:00
8:34 AM,71.6,69.8,94,29.80,10.0,South,12.7,20.7,0.01,Rain,Light Rain,170,2013-06-23 13:34:00
8:54 AM,71.6,69.8,94,29.78,7.0,SSE,17.3,23.0,0.01,Rain,Light Rain,160,2013-06-23 13:54:00
9:14 AM,73.4,69.8,88,29.78,7.0,SSE,17.3,25.3,N/A,,Light Drizzle,160,2013-06-23 14:14:00
9:34 AM,71.6,69.8,94,29.76,10.0,SSE,18.4,26.5,N/A,Rain,Light Rain,150,2013-06-23 14:34:00
9:54 AM,71.6,69.8,94,29.73,10.0,SE,17.3,27.6,N/A,,Clear,130,2013-06-23 14:54:00
10:14 AM,73.4,69.8,88,29.77,10.0,SSE,12.7,23.0,N/A,,Clear,160,2013-06-23 15:14:00
10:34 AM,73.4,69.8,88,29.80,10.0,South,11.5,19.6,N/A,,Clear,180,2013-06-23 15:34:00
10:54 AM,73.4,69.8,88,29.80,10.0,SSE,15.0,19.6,N/A,,Clear,160,2013-06-23 15:54:00
11:14 AM,73.4,68.0,83,29.80,10.0,South,15.0,19.6,N/A,,Clear,170,2013-06-23 16:14:00
11:34 AM,75.2,69.8,83,29.82,10.0,South,16.1,24.2,N/A,,Clear,170,2013-06-23 16:34:00
11:54 AM,77.0,66.2,69,29.82,10.0,South,17.3,24.2,N/A,,Clear,190,2013-06-23 16:54:00
12:14 PM,78.8,66.2,65,29.83,10.0,South,20.7,27.6,N/A,,Clear,180,2013-06-23 17:14:00
12:34 PM,77.0,66.2,69,29.84,10.0,South,21.9,25.3,N/A,,Clear,190,2013-06-23 17:34:00
12:54 PM,77.0,66.2,69,29.84,10.0,South,19.6,-,N/A,,Clear,190,2013-06-23 17:54:00
1:14 PM,77.0,66.2,69,29.85,10.0,SSW,19.6,26.5,N/A,,Clear,200,2013-06-23 18:14:00
1:34 PM,77.0,66.2,69,29.84,10.0,SSW,19.6,26.5,N/A,,Clear,200,2013-06-23 18:34:00
1:54 PM,78.8,66.2,65,29.84,10.0,SSW,17.3,21.9,N/A,,Clear,210,2013-06-23 18:54:00
2:14 PM,78.8,66.2,65,29.83,10.0,SSW,15.0,20.7,N/A,,Clear,200,2013-06-23 19:14:00
2:34 PM,80.6,68.0,65,29.83,10.0,SW,15.0,20.7,N/A,,Clear,230,2013-06-23 19:34:00
2:54 PM,80.6,68.0,65,29.84,10.0,SSW,13.8,-,N/A,,Scattered Clouds,210,2013-06-23 19:54:00
3:14 PM,80.6,68.0,65,29.84,10.0,WSW,11.5,-,N/A,,Scattered Clouds,240,2013-06-23 20:14:00
3:34 PM,80.6,68.0,65,29.84,10.0,WSW,16.1,-,N/A,,Scattered Clouds,240,2013-06-23 20:34:00
3:54 PM,80.6,68.0,65,29.84,10.0,SW,12.7,-,N/A,,Scattered Clouds,220,2013-06-23 20:54:00
4:14 PM,82.4,68.0,62,29.83,10.0,SW,10.4,17.3,N/A,,Scattered Clouds,220,2013-06-23 21:14:00
4:34 PM,82.4,66.2,58,29.83,10.0,WSW,11.5,18.4,N/A,,Scattered Clouds,250,2013-06-23 21:34:00
4:54 PM,82.4,66.2,58,29.84,10.0,SW,15.0,-,N/A,,Clear,230,2013-06-23 21:54:00
5:14 PM,82.4,66.2,58,29.84,10.0,WSW,9.2,-,N/A,,Scattered Clouds,240,2013-06-23 22:14:00
5:34 PM,82.4,68.0,62,29.85,10.0,SW,13.8,17.3,N/A,,Clear,230,2013-06-23 22:34:00
5:54 PM,82.4,68.0,62,29.85,10.0,WSW,10.4,-,N/A,,Scattered Clouds,240,2013-06-23 22:54:00
6:14 PM,80.6,68.0,65,29.85,10.0,SW,8.1,-,N/A,,Scattered Clouds,220,2013-06-23 23:14:00
6:34 PM,80.6,68.0,65,29.85,10.0,SW,6.9,-,N/A,,Scattered Clouds,220,2013-06-23 23:34:00
6:54 PM,80.6,68.0,65,29.85,10.0,SW,6.9,-,N/A,,Scattered Clouds,230,2013-06-23 23:54:00
7:14 PM,82.4,69.8,66,29.86,10.0,WSW,9.2,-,N/A,,Mostly Cloudy,250,2013-06-24 00:14:00
7:34 PM,80.6,69.8,70,29.86,10.0,WSW,6.9,-,N/A,,Scattered Clouds,250,2013-06-24 00:34:00
7:54 PM,80.6,68.0,65,29.87,10.0,SW,6.9,-,N/A,,Clear,230,2013-06-24 00:54:00
8:14 PM,78.8,68.0,69,29.87,10.0,WSW,6.9,-,N/A,,Clear,240,2013-06-24 01:14:00
8:34 PM,78.8,69.8,74,29.87,10.0,SW,3.5,-,N/A,,Clear,230,2013-06-24 01:34:00
8:54 PM,75.2,69.8,83,29.88,10.0,SSW,4.6,-,N/A,,Clear,200,2013-06-24 01:54:00
9:14 PM,75.2,69.8,83,29.88,10.0,South,4.6,-,N/A,,Clear,190,2013-06-24 02:14:00
9:34 PM,75.2,69.8,83,29.89,10.0,South,4.6,-,N/A,,Clear,190,2013-06-24 02:34:00
9:54 PM,75.2,68.0,78,29.90,10.0,South,4.6,-,N/A,,Scattered Clouds,180,2013-06-24 02:54:00
10:14 PM,73.4,68.0,83,29.90,10.0,South,4.6,-,N/A,,Scattered Clouds,170,2013-06-24 03:14:00
10:34 PM,73.4,68.0,83,29.90,10.0,South,4.6,-,N/A,,Clear,170,2013-06-24 03:34:00
10:54 PM,73.4,68.0,83,29.91,10.0,South,5.8,-,N/A,,Clear,170,2013-06-24 03:54:00
11:14 PM,73.4,68.0,83,29.91,10.0,South,5.8,-,N/A,,Clear,170,2013-06-24 04:14:00
11:34 PM,73.4,68.0,83,29.92,10.0,South,5.8,-,N/A,,Clear,180,2013-06-24 04:34:00
11:54 PM,73.4,68.0,83,29.93,10.0,South,5.8,-,N/A,,Clear,170,2013-06-24 04:54:00